Weather History for Columbus, NE

Change the Weather History Date:

Saturday, May 17, 2014

  Actual Average Record
Temperature  
Mean Temperature 47 °F -  
Max Temperature 62 °F 73 °F 93 °F (1987)
Min Temperature 32 °F 52 °F 32 °F (2014)
Degree Days  
Heating Degree Days 18    
Moisture  
Dew Point 34 °F    
Average Humidity 59    
Maximum Humidity 87    
Minimum Humidity 36    
Precipitation  
Precipitation 0.00 in - - ()
Sea Level Pressure  
Sea Level Pressure 30.14 in    
Wind  
Wind Speed 4 mph (SSW)    
Max Wind Speed 14 mph    
Max Gust Speed 17 mph    
Visibility 8 miles    
Events      
Averages and records for this station are not official NWS values.
T = Trace of Precipitation, MM = Missing Value Source: NWS Daily Summary

Daily Weather History Graph

Daily Weather History Graph

Search for Another Location

Airport:

Trip Planner

Search our weather history database for the weather conditions in past years. The results will help you decide how hot, cold, wet, or windy it might be!

Date:

Astronomy

May. 17, 2014 Rise Set
Actual Time 6:08 AM CDT 8:43 PM CDT
Civil Twilight 5:36 AM CDT 9:15 PM CDT
Nautical Twilight 4:57 AM CDT 9:55 PM CDT
Astronomical Twilight 4:12 AM CDT 10:40 PM CDT
Moon 11:45 PM CDT (5/17) 8:52 AM CDT (5/17)
Length of Visible Light 15h 38m
Length of Day
14h 35m
Waning Gibbous, 89% of the Moon is Illuminated
May 17
Waning Gibbous
May 21
Last Quarter
May 28
New
Jun 5
First Quarter
Jun 12
Full

Hourly Weather History & Observations

Time (CDT) Temp. Windchill Dew Point Humidity Pressure Visibility Wind Dir Wind Speed Gust Speed Precip Events Conditions
12:15 AM 37.4 °F 34.9 °F 32.0 °F 81% 30.15 in 10.0 mi WNW 3.5 mph - N/A   Clear
12:35 AM 35.6 °F 31.7 °F 28.4 °F 75% 30.16 in 10.0 mi WNW 4.6 mph - N/A   Clear
12:55 AM 39.2 °F 35.9 °F 33.8 °F 81% 30.16 in 10.0 mi West 4.6 mph - N/A   Clear
1:15 AM 37.4 °F 34.9 °F 32.0 °F 81% 30.16 in 10.0 mi WNW 3.5 mph - N/A   Clear
1:35 AM 35.6 °F 30.7 °F 30.2 °F 81% 30.16 in 8.0 mi WSW 5.8 mph - N/A   Clear
1:55 AM 37.4 °F 33.8 °F 32.0 °F 81% 30.16 in 10.0 mi WNW 4.6 mph - N/A   Partly Cloudy
2:15 AM 37.4 °F 34.9 °F 32.0 °F 81% 30.16 in 9.0 mi WSW 3.5 mph - N/A   Clear
2:35 AM 37.4 °F - 32.0 °F 81% 30.16 in 8.0 mi Calm Calm - N/A   Clear
2:55 AM 35.6 °F - 30.2 °F 81% 30.16 in 6.0 mi Calm Calm - N/A   Clear
3:15 AM 35.6 °F - 30.2 °F 81% 30.16 in 6.0 mi Calm Calm - N/A   Clear
3:35 AM 35.6 °F - 30.2 °F 81% 30.16 in 5.0 mi Calm Calm - N/A   Clear
3:55 AM 35.6 °F - 28.4 °F 75% 30.15 in 5.0 mi Calm Calm - N/A   Clear
4:15 AM 33.8 °F - 28.4 °F 81% 30.15 in 5.0 mi Calm Calm - N/A   Clear
4:35 AM 33.8 °F - 26.6 °F 75% 30.16 in 5.0 mi Calm Calm - N/A   Clear
4:55 AM 35.6 °F - 30.2 °F 81% 30.16 in 5.0 mi Calm Calm - N/A   Clear
5:15 AM 33.8 °F - 28.4 °F 81% 30.15 in 4.0 mi Calm Calm - N/A   Clear
5:35 AM 32.0 °F - 26.6 °F 80% 30.15 in 3.0 mi Calm Calm - N/A   Clear
5:55 AM 32.0 °F - 26.6 °F 80% 30.15 in 3.0 mi Calm Calm - N/A   Clear
6:15 AM 32.0 °F - 26.6 °F 80% 30.16 in 3.0 mi Calm Calm - N/A   Clear
6:35 AM 32.0 °F - 26.6 °F 80% 30.16 in 2.5 mi Calm Calm - N/A   Clear
6:55 AM 33.8 °F - 28.4 °F 81% 30.16 in 1.8 mi Calm Calm - N/A   Clear
7:15 AM 33.8 °F - 28.4 °F 81% 30.16 in 2.5 mi Calm Calm - N/A   Clear
7:35 AM 37.4 °F - 33.8 °F 87% 30.17 in 3.0 mi Calm Calm - N/A   Clear
7:55 AM 39.2 °F 35.9 °F 35.6 °F 87% 30.17 in 5.0 mi West 4.6 mph - N/A   Clear
8:15 AM 42.8 °F 41.1 °F 37.4 °F 81% 30.17 in 6.0 mi WNW 3.5 mph - N/A   Clear
8:35 AM 44.6 °F 42.2 °F 39.2 °F 81% 30.17 in 8.0 mi WNW 4.6 mph - N/A   Clear
8:55 AM 46.4 °F 45.2 °F 41.0 °F 81% 30.17 in 9.0 mi WNW 3.5 mph - N/A   Clear
9:15 AM 48.2 °F - 42.8 °F 82% 30.18 in 10.0 mi West 4.6 mph - N/A   Clear
9:35 AM 50.0 °F - 41.0 °F 71% 30.17 in 10.0 mi WNW 4.6 mph - N/A   Clear
9:55 AM 53.6 °F - 42.8 °F 67% 30.17 in 10.0 mi West 4.6 mph - N/A   Clear
10:15 AM 53.6 °F - 41.0 °F 62% 30.17 in 10.0 mi WSW 3.5 mph - N/A   Clear
10:35 AM 55.4 °F - 39.2 °F 54% 30.17 in 10.0 mi Calm Calm - N/A   Clear
10:55 AM 55.4 °F - 39.2 °F 54% 30.17 in 10.0 mi SSW 3.5 mph - N/A   Clear
11:15 AM 57.2 °F - 37.4 °F 48% 30.17 in 10.0 mi SSW 4.6 mph - N/A   Clear
11:35 AM 57.2 °F - 35.6 °F 44% 30.17 in 10.0 mi SE 8.1 mph - N/A   Clear
11:55 AM 59.0 °F - 35.6 °F 42% 30.17 in 10.0 mi SSW 9.2 mph - N/A   Clear
12:15 PM 59.0 °F - 33.8 °F 39% 30.16 in 10.0 mi SSE 9.2 mph - N/A   Clear
12:35 PM 60.8 °F - 37.4 °F 42% 30.16 in 10.0 mi SSE 11.5 mph 17.3 mph N/A   Partly Cloudy
12:55 PM 60.8 °F - 33.8 °F 36% 30.15 in 10.0 mi South 13.8 mph - N/A   Partly Cloudy
1:15 PM 60.8 °F - 33.8 °F 36% 30.15 in 10.0 mi South 6.9 mph - N/A   Scattered Clouds
1:35 PM 62.6 °F - 35.6 °F 37% 30.15 in 10.0 mi SW 9.2 mph - N/A   Partly Cloudy
1:55 PM 62.6 °F - 35.6 °F 37% 30.14 in 10.0 mi South 9.2 mph - N/A   Clear
2:15 PM 60.8 °F - 35.6 °F 39% 30.14 in 10.0 mi South 9.2 mph - N/A   Clear
2:35 PM 60.8 °F - 35.6 °F 39% 30.13 in 10.0 mi SSW 4.6 mph - N/A   Clear
2:55 PM 62.6 °F - 35.6 °F 37% 30.13 in 10.0 mi SSW 5.8 mph 17.3 mph N/A   Clear
3:15 PM 62.6 °F - 35.6 °F 37% 30.13 in 10.0 mi SSW 10.4 mph - N/A   Partly Cloudy
3:35 PM 62.6 °F - 37.4 °F 39% 30.12 in 10.0 mi SW 9.2 mph - N/A   Partly Cloudy
3:55 PM 62.6 °F - 35.6 °F 37% 30.12 in 10.0 mi SSW 9.2 mph 17.3 mph N/A   Scattered Clouds
4:15 PM 62.6 °F - 35.6 °F 37% 30.12 in 10.0 mi South 10.4 mph - N/A   Partly Cloudy
4:35 PM 60.8 °F - 35.6 °F 39% 30.11 in 10.0 mi SSW 4.6 mph - N/A   Partly Cloudy
4:55 PM 62.6 °F - 35.6 °F 37% 30.11 in 10.0 mi South 9.2 mph - N/A   Partly Cloudy
5:15 PM 62.6 °F - 35.6 °F 37% 30.11 in 10.0 mi WSW 5.8 mph - N/A   Partly Cloudy
5:35 PM 60.8 °F - 35.6 °F 39% 30.10 in 10.0 mi South 6.9 mph - N/A   Partly Cloudy
5:55 PM 62.6 °F - 35.6 °F 37% 30.10 in 10.0 mi SSW 9.2 mph - N/A   Partly Cloudy
6:15 PM 60.8 °F - 35.6 °F 39% 30.10 in 10.0 mi WSW 6.9 mph - N/A   Clear
6:35 PM 62.6 °F - 35.6 °F 37% 30.10 in 10.0 mi SSW 8.1 mph - N/A   Partly Cloudy
6:55 PM 62.6 °F - 37.4 °F 39% 30.09 in 10.0 mi SSW 10.4 mph - N/A   Mostly Cloudy
7:15 PM 60.8 °F - 35.6 °F 39% 30.09 in 10.0 mi SW 8.1 mph - N/A   Mostly Cloudy
7:35 PM 60.8 °F - 37.4 °F 42% 30.09 in 10.0 mi SSW 8.1 mph - N/A   Partly Cloudy
7:55 PM 60.8 °F - 35.6 °F 39% 30.09 in 10.0 mi SSW 6.9 mph - N/A   Partly Cloudy
8:15 PM 57.2 °F - 35.6 °F 44% 30.10 in 10.0 mi South 6.9 mph - N/A   Clear
8:35 PM 55.4 °F - 35.6 °F 47% 30.10 in 10.0 mi South 5.8 mph - N/A   Clear
8:55 PM 53.6 °F - 35.6 °F 51% 30.10 in 10.0 mi South 4.6 mph - N/A   Clear
9:15 PM 53.6 °F - 35.6 °F 51% 30.10 in 10.0 mi SSE 5.8 mph - N/A   Clear
9:35 PM 51.8 °F - 35.6 °F 54% 30.11 in 10.0 mi SSE 5.8 mph - N/A   Clear
9:55 PM 51.8 °F - 35.6 °F 54% 30.11 in 10.0 mi SSE 5.8 mph - N/A   Clear
10:15 PM 51.8 °F - 33.8 °F 50% 30.11 in 10.0 mi South 5.8 mph - N/A   Clear
10:35 PM 51.8 °F - 35.6 °F 54% 30.12 in 10.0 mi SSE 5.8 mph - N/A   Clear
10:55 PM 48.2 °F - 33.8 °F 58% 30.12 in 10.0 mi South 5.8 mph - N/A   Clear
11:15 PM 50.0 °F - 35.6 °F 58% 30.12 in 10.0 mi South 5.8 mph - N/A   Clear
11:35 PM 46.4 °F 43.5 °F 35.6 °F 66% 30.13 in 10.0 mi South 5.8 mph - N/A   Clear
11:55 PM 50.0 °F - 35.6 °F 58% 30.13 in 10.0 mi SSW 5.8 mph - N/A   Clear